GW3829 Weather Reports


time (UTC)temp
F
wind
direction
speed
knots
gust
knots
rain 1hr
in
rain 24hr
in
rain mn
in
humidity
%
barometer
mb
20260503014130 59 349 0.0 0.0 0.00 0.00 0.00 44 1014.2
20260503013627 60 348 0.0 0.0 0.00 0.00 0.00 44 1014.1
20260503013125 60 346 0.0 0.0 0.00 0.00 0.00 45 1014.0
20260503012622 62 346 0.0 0.0 0.00 0.00 0.00 42 1014.1
20260503012118 62 297 0.0 0.0 0.00 0.00 0.00 40 1014.2
20260503011615 62 297 0.0 0.0 0.00 0.00 0.00 46 1014.1
20260503011112 63 297 0.0 0.0 0.00 0.00 0.00 40 1014.4
20260503010608 63 297 0.0 0.0 0.00 0.00 0.00 40 1014.3
20260503010106 63 277 0.0 0.0 0.00 0.00 0.00 40 1014.5
20260503005602 63 276 0.0 0.0 0.00 0.00 0.00 44 1014.3
20260503005100 63 250 0.0 0.0 0.00 0.00 0.00 41 1014.5
20260503004555 63 246 0.0 0.0 0.00 0.00 0.00 41 1014.4
20260503004054 63 246 0.0 0.0 0.00 0.00 0.00 40 1014.5
20260503003550 63 241 0.0 0.0 0.00 0.00 0.00 40 1014.8
20260503003048 63 238 0.0 0.0 0.00 0.00 0.00 40 1014.8
20260503002545 63 234 0.0 0.0 0.00 0.00 0.00 42 1014.7
20260503002041 63 236 0.0 0.0 0.00 0.00 0.00 41 1014.9
20260503001537 63 242 0.0 0.0 0.00 0.00 0.00 40 1014.9
20260503001035 63 238 0.0 0.0 0.00 0.00 0.00 40 1014.9
20260503000532 63 252 0.0 0.0 0.00 0.00 0.00 40 1014.7
20260503000029 63 239 0.0 0.0 0.00 0.00 0.00 40 1015.0
20260502235526 64 253 0.0 0.0 0.00 0.00 0.00 40 1015.0
20260502235024 63 288 0.0 0.0 0.00 0.00 0.00 40 1014.9
20260502234520 64 315 0.0 0.0 0.00 0.00 0.00 41 1015.1
20260502234018 64 315 0.0 0.0 0.00 0.00 0.00 41 1015.0
20260502233513 64 315 0.0 0.0 0.00 0.00 0.00 39 1015.0
20260502233010 64 314 0.0 0.0 0.00 0.00 0.00 40 1015.3
20260502232506 64 318 0.0 0.0 0.00 0.00 0.00 40 1015.0
20260502232003 64 335 0.0 0.0 0.00 0.00 0.00 41 1015.3
20260502231500 63 328 0.0 0.0 0.00 0.00 0.00 41 1015.3
20260502230958 64 343 0.0 0.0 0.00 0.00 0.00 40 1015.2
20260502230456 64 341 0.0 0.0 0.00 0.00 0.00 41 1015.2
20260502225954 64 338 0.0 0.0 0.00 0.00 0.00 39 1015.6
20260502225449 65 258 0.0 0.0 0.00 0.00 0.00 38 1015.5
20260502224947 65 254 0.0 0.0 0.00 0.00 0.00 39 1015.6
20260502224443 64 297 0.0 0.0 0.00 0.00 0.00 39 1015.6
20260502223939 62 302 0.0 0.0 0.00 0.00 0.00 39 1015.6
20260502223437 62 38 0.0 0.0 0.00 0.00 0.00 42 1016.0
20260502222935 62 205 0.0 0.0 0.00 0.00 0.00 40 1015.6
20260502222433 63 187 0.0 0.0 0.00 0.00 0.00 40 1016.0
20260502221928 62 196 0.0 0.0 0.00 0.00 0.00 40 1016.0
20260502221425 62 68 0.0 0.0 0.00 0.00 0.00 40 1016.2
20260502220922 62 53 0.0 0.0 0.00 0.00 0.00 41 1016.2
20260502220418 63 93 0.0 0.0 0.00 0.00 0.00 42 1016.3
20260502215915 63 18 0.0 0.0 0.00 0.00 0.00 43 1016.4
20260502215412 63 29 0.0 0.0 0.00 0.00 0.00 43 1016.3
20260502214909 63 38 0.0 0.0 0.00 0.00 0.00 41 1016.4
20260502214405 62 39 0.0 0.0 0.00 0.00 0.00 41 1016.5
20260502213903 62 50 0.0 0.0 0.00 0.00 0.00 42 1016.4
20260502213400 63 19 0.0 0.0 0.00 0.00 0.00 42 1016.6
20260502212859 63 19 0.0 0.0 0.00 0.00 0.00 43 1016.6
20260502212357 62 328 0.0 0.0 0.00 0.00 0.00 42 1016.9
20260502211854 61 340 0.0 0.0 0.00 0.00 0.00 43 1016.7
20260502211349 62 4 0.0 0.0 0.00 0.00 0.00 42 1016.9
20260502210847 62 305 0.0 0.0 0.00 0.00 0.00 42 1017.1
20260502210344 63 289 0.0 0.0 0.00 0.00 0.00 41 1017.1
20260502205841 64 232 0.0 0.0 0.00 0.00 0.00 39 1016.9
20260502205337 63 317 0.0 0.0 0.00 0.00 0.00 42 1017.0
20260502204834 62 35 0.0 0.0 0.00 0.00 0.00 41 1017.1
20260502204331 62 343 0.0 0.0 0.00 0.00 0.00 42 1017.1
20260502203828 63 300 0.0 0.0 0.00 0.00 0.00 40 1016.9
20260502203321 62 311 0.0 0.0 0.00 0.00 0.00 41 1017.1
20260502202821 63 316 0.0 0.0 0.00 0.00 0.00 41 1017.2
20260502202319 64 23 0.0 0.0 0.00 0.00 0.00 42 1017.3
20260502201816 63 73 0.0 0.0 0.00 0.00 0.00 41 1017.3
20260502201312 62 358 0.0 0.0 0.00 0.00 0.00 44 1017.3
20260502200809 61 15 0.0 0.0 0.00 0.00 0.00 45 1017.2
20260502200304 61 27 0.0 0.0 0.00 0.00 0.00 43 1017.4
20260502195803 62 1 0.0 0.0 0.00 0.00 0.00 42 1017.6
20260502195259 60 110 0.0 0.0 0.00 0.00 0.00 45 1017.4
20260502194755 61 338 0.0 0.0 0.00 0.00 0.00 44 1017.7
20260502194253 61 29 0.0 0.0 0.00 0.00 0.00 44 1017.6
20260502193748 60 57 0.0 0.0 0.00 0.00 0.00 45 1017.7
20260502193241 60 20 0.0 0.0 0.00 0.00 0.00 47 1017.9
20260502192740 60 19 0.0 0.0 0.00 0.00 0.00 46 1017.9
20260502192238 59 17 0.0 0.0 0.00 0.00 0.00 46 1017.9
20260502191735 60 33 0.0 0.0 0.00 0.00 0.00 48 1017.9
20260502191233 59 11 0.0 0.0 0.00 0.00 0.00 47 1018.1
20260502190730 60 36 0.0 0.0 0.00 0.00 0.00 48 1018.3
20260502190227 59 50 0.0 0.0 0.00 0.00 0.00 49 1018.2
20260502185727 59 17 0.0 0.0 0.00 0.00 0.00 49 1018.3
20260502185224 59 36 0.0 0.0 0.00 0.00 0.00 48 1018.3
20260502184720 59 19 0.0 0.0 0.00 0.00 0.00 49 1018.3
20260502184216 59 27 0.0 0.0 0.00 0.00 0.00 51 1018.3
20260502183713 58 22 0.0 0.0 0.00 0.00 0.00 51 1018.6
20260502183209 58 34 0.0 0.0 0.00 0.00 0.00 50 1018.4
20260502182704 59 326 0.0 0.0 0.00 0.00 0.00 50 1018.4
20260502182200 59 345 0.0 0.0 0.00 0.00 0.00 50 1018.8
20260502181657 59 28 0.0 0.0 0.00 0.00 0.00 51 1018.4
20260502181156 58 14 0.0 0.0 0.00 0.00 0.00 51 1018.3
20260502180653 59 14 0.0 0.0 0.00 0.00 0.00 50 1018.4
20260502180150 59 35 0.0 0.0 0.00 0.00 0.00 50 1018.3
20260502170114 59 4 0.0 0.0 0.00 0.00 0.00 50 1018.6
20260502164101 59 22 0.0 0.0 0.00 0.00 0.00 51 1018.2
20260502163556 59 24 0.0 0.0 0.00 0.00 0.00 52 1018.3
20260502163054 58 8 0.0 0.0 0.00 0.00 0.00 50 1018.6
20260502162550 58 5 0.0 0.0 0.00 0.00 0.00 50 1018.3
20260502162048 58 5 0.0 0.9 0.00 0.00 0.00 50 1018.2
20260502161544 59 356 0.0 0.0 0.00 0.00 0.00 48 1018.3
20260502161042 59 342 0.0 0.0 0.00 0.00 0.00 51 1018.5
20260502160540 58 356 0.0 0.9 0.00 0.00 0.00 50 1018.3
20260502151953 58 27 0.0 0.0 0.00 0.00 0.00 51 1018.3
20260502151449 57 16 0.0 0.0 0.00 0.00 0.00 52 1018.4
20260502150947 57 11 0.0 0.0 0.00 0.00 0.00 52 1018.5
20260502150444 57 359 0.0 0.0 0.00 0.00 0.00 51 1018.2
20260502130329 45 312 0.0 0.0 0.00 0.00 0.00 68 1017.9
20260502123815 42 309 0.0 0.0 0.00 0.00 0.00 71 1017.9
20260502123312 42 314 0.0 0.0 0.00 0.00 0.00 70 1017.6
20260502122809 42 311 0.0 0.0 0.00 0.00 0.00 71 1017.7
20260502122306 42 308 0.0 0.0 0.00 0.00 0.00 71 1017.3
20260502121803 41 293 0.0 0.0 0.00 0.00 0.00 72 1017.4
20260502121300 42 279 0.0 0.0 0.00 0.00 0.00 71 1017.5
20260502120757 43 296 0.0 0.0 0.00 0.00 0.00 69 1017.3
20260502120253 43 316 0.0 0.0 0.00 0.00 0.00 68 1017.3
20260502115751 42 333 0.0 0.0 0.00 0.00 0.00 69 1017.1
20260502115248 43 335 0.0 0.0 0.00 0.00 0.00 69 1017.3
20260502114744 43 338 0.0 0.0 0.00 0.00 0.00 68 1017.1
20260502114241 44 342 0.0 0.0 0.00 0.00 0.00 68 1017.1
20260502113738 44 337 0.0 0.0 0.00 0.00 0.00 66 1017.2
20260502113236 45 347 0.0 0.0 0.00 0.00 0.00 65 1017.1
20260502112734 46 354 0.0 0.0 0.00 0.00 0.00 64 1017.0
20260502112231 46 351 0.0 0.0 0.00 0.00 0.00 64 1017.0
20260502111728 46 359 0.0 0.0 0.00 0.00 0.00 64 1017.0
20260502111226 46 0 0.0 0.0 0.00 0.00 0.00 64 1017.0
20260502110723 48 15 0.0 0.0 0.00 0.00 0.00 61 1016.9
20260502110221 47 18 0.0 0.0 0.00 0.00 0.00 60 1016.9
20260502105719 46 6 0.0 0.0 0.00 0.00 0.00 62 1016.7
20260502105215 47 354 0.0 0.0 0.00 0.00 0.00 62 1016.6
20260502104712 48 22 0.0 0.0 0.00 0.00 0.00 60 1016.1
20260502104210 47 37 0.0 0.0 0.00 0.00 0.00 61 1016.2
20260502103707 46 13 0.0 0.0 0.00 0.00 0.00 61 1016.3
20260502103205 46 12 0.0 0.0 0.00 0.00 0.00 61 1016.1
20260502102701 46 10 0.0 0.0 0.00 0.00 0.00 61 1016.2
20260502102158 46 14 0.0 0.0 0.00 0.00 0.00 61 1016.1
20260502101656 46 11 0.0 0.0 0.00 0.00 0.00 62 1016.0
20260502101154 47 4 0.0 0.0 0.00 0.00 0.00 60 1016.1
20260502100652 48 353 0.0 0.0 0.00 0.00 0.00 58 1016.0
20260502100150 48 5 0.0 0.0 0.00 0.00 0.00 57 1015.9
20260502091124 49 24 0.0 0.0 0.00 0.00 0.00 53 1015.1
20260502090621 51 34 0.0 0.0 0.00 0.00 0.00 50 1015.0
20260502090119 51 35 0.0 0.0 0.00 0.00 0.00 49 1015.2
20260502071516 44 291 0.0 0.0 0.00 0.00 0.00 57 1013.9
20260502071014 44 259 0.0 0.0 0.00 0.00 0.00 56 1013.8
20260502070512 44 289 0.0 0.0 0.00 0.00 0.00 57 1013.9
20260502070010 47 305 0.0 0.0 0.00 0.00 0.00 53 1014.0
20260502065508 48 278 0.0 0.0 0.00 0.00 0.00 50 1013.9
20260502065006 47 272 0.0 0.0 0.00 0.00 0.00 49 1014.0
20260502064504 49 340 0.0 0.0 0.00 0.00 0.00 50 1013.8
20260502064000 47 261 0.0 0.0 0.00 0.00 0.00 49 1013.9
20260502063459 47 274 0.0 0.0 0.00 0.00 0.00 52 1013.9
20260502062955 47 260 0.0 0.0 0.00 0.00 0.00 51 1014.0
20260502062452 46 270 0.0 0.0 0.00 0.00 0.00 52 1013.9
20260502061951 47 279 0.0 0.0 0.00 0.00 0.00 51 1014.2
20260502061449 45 280 0.0 0.0 0.00 0.00 0.00 53 1014.0
20260502060944 44 278 0.0 0.0 0.00 0.00 0.00 54 1013.9
20260502060440 47 295 0.0 0.0 0.00 0.00 0.00 51 1013.8
20260502055936 47 287 0.0 0.0 0.00 0.00 0.00 50 1013.9
20260502055434 46 296 0.0 0.0 0.00 0.00 0.00 52 1014.0
20260502054929 45 303 0.0 0.0 0.00 0.00 0.00 54 1014.1
20260502054426 43 301 0.0 0.0 0.00 0.00 0.00 56 1013.9
20260502053923 43 304 0.0 0.0 0.00 0.00 0.00 57 1013.9
20260502053420 44 289 0.0 0.0 0.00 0.00 0.00 56 1014.2
20260502052918 43 291 0.0 0.0 0.00 0.00 0.00 58 1014.0
20260502052416 46 301 0.0 0.0 0.00 0.00 0.00 51 1014.0
20260502051914 44 304 0.0 0.0 0.00 0.00 0.00 55 1013.5
20260502051412 45 304 0.0 0.0 0.00 0.00 0.00 52 1014.0
20260502050908 47 283 0.0 0.0 0.00 0.00 0.00 49 1013.8
20260502050405 46 278 0.0 0.0 0.00 0.00 0.00 50 1013.9
20260502045902 46 285 0.0 0.0 0.00 0.00 0.00 50 1013.8
20260502045359 48 302 0.0 0.0 0.00 0.00 0.00 50 1014.0
20260502044856 47 301 0.0 0.0 0.00 0.00 0.00 50 1013.8
20260502044352 46 301 0.0 0.0 0.00 0.00 0.00 50 1013.8
20260502043849 49 312 0.0 0.0 0.00 0.00 0.00 48 1014.0
20260502043346 48 264 0.0 0.0 0.00 0.00 0.00 48 1013.8
20260502042840 47 253 0.0 0.0 0.00 0.00 0.00 49 1013.4
20260502042338 47 243 0.0 0.0 0.00 0.00 0.00 51 1013.8
20260502041835 48 271 0.0 0.0 0.00 0.00 0.00 50 1013.8
20260502041332 52 287 0.0 0.0 0.00 0.00 0.00 43 1013.7
20260502040830 51 288 0.0 0.0 0.00 0.00 0.00 44 1013.4
20260502040326 52 309 0.0 0.0 0.00 0.00 0.00 45 1013.4
20260502035822 53 318 0.0 0.0 0.00 0.00 0.00 41 1013.5
20260502035319 53 312 0.0 0.0 0.00 0.00 0.00 42 1013.4
20260502034817 54 310 0.0 0.0 0.00 0.00 0.00 41 1013.2
20260502034315 53 303 0.0 0.0 0.00 0.00 0.00 42 1013.3
20260502033813 57 275 0.0 0.0 0.00 0.00 0.00 36 1013.4
20260502033310 56 271 0.0 0.0 0.00 0.00 0.00 36 1013.2
20260502032807 59 270 0.0 0.0 0.00 0.00 0.00 36 1013.4
20260502032305 60 302 0.0 0.0 0.00 0.00 0.00 32 1013.4
20260502031801 57 297 0.0 0.0 0.00 0.00 0.00 34 1013.2
20260502031259 60 251 0.0 0.0 0.00 0.00 0.00 32 1013.1
20260502030757 58 255 0.0 0.0 0.00 0.00 0.00 36 1013.1
20260502030254 59 248 0.0 0.0 0.00 0.00 0.00 35 1013.2
20260502025752 60 255 0.0 0.0 0.00 0.00 0.00 31 1012.9
20260502025250 58 259 0.0 0.0 0.00 0.00 0.00 35 1013.2
20260502024747 57 259 0.0 0.0 0.00 0.00 0.00 43 1013.1
20260502024245 63 299 0.0 0.0 0.00 0.00 0.00 31 1012.8
20260502023743 62 300 0.0 0.0 0.00 0.00 0.00 32 1013.0
20260502023240 61 290 0.0 0.0 0.00 0.00 0.00 35 1012.9
20260502022738 62 306 0.0 0.0 0.00 0.00 0.00 33 1012.8
20260502022233 63 336 0.0 0.0 0.00 0.00 0.00 31 1012.9
20260502021731 63 324 0.0 0.0 0.00 0.00 0.00 32 1013.0
20260502021228 62 325 0.0 0.0 0.00 0.00 0.00 32 1013.0
20260502020725 62 327 0.0 0.0 0.00 0.00 0.00 36 1012.8
20260502020222 62 3 0.0 0.0 0.00 0.00 0.00 34 1012.9
20260502015720 62 4 0.0 0.0 0.00 0.00 0.00 36 1012.7
20260502015216 63 25 0.0 0.0 0.00 0.00 0.00 35 1012.7
20260502014714 64 22 0.0 0.0 0.00 0.00 0.00 34 1012.7
20260502014211 65 35 0.0 0.0 0.00 0.00 0.00 34 1012.6